Location: Newark
(20.1200°S, 168.9600°E)
Time: 08:39:55
(UTC+00:00)

Hubble Space Telescope - Pass Details

Date: 28 November 2019
Orbit: 536 x 540 km, 28.5° (Epoch: 09 December)

Event Time Altitude Azimuth Distance (km) Brightness Sun altitude
Exits shadow 15:37:56 27° 174° (S) 1,065 2.6 -28.5°
Drops below altitude 10° 15:41:03 10° 127° (SE) 1,802 4.4 -27.9°
Sets 15:43:34 0° 115° (ESE) 2,694 5.5 -27.5°
